[[{"header":{"parameterUnit":"m.s-1","parameterCategory":1,"la1":30.2991,"la2":30.254,"lo1":-89.0895,"lo2":-89.0444,"dy":0.0017,"dx":0.0017,"nx":28,"ny":28,"refTime":"2024-04-11T21:00:00:Z","depth":0,"parameterNumber":2,"parameterNumberName":"U-component_of_WINDS"},"data":[0,0,0,0,0,0,0,0,0,0,0,0,0,0,0,0,0,0,0,0,0,0,0,0,0,0,0,0,0,0,0,0,0,0,0,0,0,0,0,0,0,0,0,0,0,0,0,0,0,0,0,0,0,0,0,0,0,0,2.5755,2.5756,0,2.591,2.5912,2.5913,2.5955,2.5954,2.5953,2.5953,2.6116,2.6121,2.6126,0,0,0,0,0,0,0,0,0,0,0,0,0,2.55,2.5505,2.5754,2.5756,2.5758,2.5909,2.5912,2.5914,2.5955,2.5954,2.5953,2.5952,2.6114,2.612,2.6126,0,0,0,0,0,0,0,0,0,0,0,0,0,2.5629,2.5506,2.5754,2.5797,2.5803,2.5909,2.5912,2.5914,2.5956,2.5954,2.5953,2.5952,2.6112,2.6119,2.6127,2.6203,0,0,2.6151,2.6154,0,0,0,0,0,0,0,0,2.5621,2.5638,2.5789,2.5795,2.5801,2.5912,2.5882,2.6011,2.5956,2.5898,2.5953,2.5951,2.6049,2.6062,2.6094,2.6211,2.6218,2.6152,2.6156,2.616,2.6162,0,0,0,0,0,0,0,2.5612,2.5632,2.5816,2.5791,2.5798,2.5811,2.5828,2.5907,2.5979,2.5903,2.5906,2.5924,2.6052,2.6087,2.6098,2.622,2.6151,2.6158,2.6163,2.6166,2.641,2.6412,0,0,0,0,0,0,2.5595,2.5624,2.5811,2.5821,2.5706,2.5817,2.5835,2.5878,2.5979,2.5993,2.5925,2.5925,2.6074,2.6089,2.6104,2.6202,2.616,2.6167,2.6171,2.6408,2.6411,2.6413,0,0,0,0,0,0,2.559,2.5612,2.5805,2.5723,2.5749,2.5822,2.587,2.5881,2.5916,2.5995,2.6009,2.5946,2.6074,2.6093,2.6179,2.6208,2.6171,2.6178,2.6406,2.6409,2.6412,2.6397,0,0,0,0,0,0,2.5582,2.5609,2.5637,2.5724,2.5753,2.5875,2.5871,2.5885,2.5929,2.5931,2.6019,2.6032,2.6074,2.6167,2.6186,2.6218,2.6184,2.6404,2.6408,2.6411,2.6395,2.6398,2.6402,0,0,0,0,0,2.5573,2.5627,2.5638,2.5661,2.5789,2.5876,2.5893,2.5939,2.5931,2.5961,2.6012,2.603,2.6202,2.6175,2.6198,2.6232,2.6402,2.6407,2.641,2.6393,2.6398,2.6402,0,0,0,0,0,0,2.5543,2.5639,2.5653,2.5736,2.5797,2.5883,2.5922,2.5942,2.6008,2.6007,2.6062,2.6082,2.6164,2.6207,2.6175,2.6313,2.6303,2.6311,2.6282,2.6287,2.629,2.6279,2.619,0,0,0,0,0,2.5546,2.5607,2.5688,2.5754,2.5784,2.5848,2.5887,2.5917,2.5984,2.601,2.6068,2.6133,2.6203,2.6247,2.6315,2.6401,2.6423,2.6436,2.644,2.6442,2.645,2.6502,2.651,2.6426,2.6426,2.6426,0,0,2.5553,2.5613,2.5648,2.5749,2.5801,2.5865,2.5869,2.5936,2.5985,2.6021,2.6105,2.615,2.6227,2.6314,2.6355,2.6352,2.6478,2.6447,2.6449,2.6455,2.6507,2.6515,2.6522,2.6429,2.6428,2.6428,0,0,2.5599,2.5649,2.5711,2.5762,2.5839,2.5882,2.5897,2.598,2.6011,2.6096,2.6125,2.6185,2.6302,2.6357,2.64,2.6469,2.6489,2.649,2.6508,2.6558,2.6565,2.6571,2.6598,2.6607,2.6496,2.6496,2.6496,0,2.5598,2.5694,2.574,2.5806,2.5851,2.5886,2.5951,2.5999,2.6095,2.6126,2.6121,2.6271,2.6325,2.6426,2.6443,2.6476,2.6497,2.648,2.656,2.6566,2.6573,2.6599,2.6609,2.6496,2.6496,2.6496,2.6496,0,2.5691,2.5757,2.5798,2.5889,2.5939,2.6004,2.6062,2.6107,2.6133,2.6177,2.6265,2.6332,2.6415,2.6441,2.6467,2.6547,2.6544,2.6548,2.6539,2.658,2.6606,2.6616,2.6496,2.6496,2.6496,2.6496,0,0,2.5721,2.5838,2.5853,2.5896,2.5985,2.6038,2.6106,2.6187,2.6226,2.6291,2.6352,2.6451,2.6457,2.6506,2.6539,2.6582,2.6637,2.6583,2.6585,2.6592,2.6733,2.6729,2.674,2.665,2.6652,2.6653,2.6727,0,2.578,2.59,2.5945,2.6045,2.6109,2.6144,2.6204,2.6266,2.631,2.6372,2.642,2.6491,2.6492,2.6522,2.6567,2.662,2.6666,2.6615,2.6709,2.6712,2.669,2.6753,2.675,2.6816,2.6737,2.6739,2.674,0,2.5863,2.593,2.6036,2.612,2.6148,2.6201,2.628,2.6338,2.6411,2.6439,2.6495,2.6526,2.6601,2.6587,2.6693,2.6658,2.6699,2.6731,2.6735,2.6747,2.6729,2.6769,2.6838,2.6848,2.6756,2.6755,2.6754,0,2.5878,2.5994,2.6073,2.6109,2.6208,2.6245,2.6288,2.6359,2.6406,2.6475,2.6507,2.6584,2.6627,2.6688,2.674,2.6724,2.6843,2.6832,2.6871,2.687,2.6895,2.6893,2.6973,2.6918,2.6918,2.6918,2.6918,0,2.5939,2.6004,2.6081,2.613,2.6205,2.6256,2.6329,2.6375,2.6439,2.6499,2.6534,2.6591,2.6655,2.672,2.6762,2.6845,2.6864,2.6891,2.6902,2.6889,2.6886,2.6917,2.6915,2.6921,2.692,2.6919,2.6919,0,2.5968,2.6022,2.6112,2.6198,2.6222,2.6273,2.6348,2.6399,2.6444,2.652,2.6541,2.6613,2.6692,2.675,2.6852,2.688,2.697,2.698,2.6945,2.6951,2.6987,2.6984,2.7092,2.711,2.7041,2.7042,2.7042,0,2.6004,2.6055,2.6147,2.619,2.6233,2.63,2.6348,2.6402,2.6451,2.6539,2.658,2.6661,2.6729,2.6854,2.6917,2.6996,2.701,2.7042,2.7022,2.7008,2.7013,2.701,2.7017,2.7045,2.7046,2.7046,2.7047,0,2.6064,2.6089,2.6155,2.6233,2.6288,2.6352,2.6416,2.6449,2.6515,2.6569,2.665,2.6702,2.6807,2.6889,2.6975,2.7022,2.7047,2.7052,2.7066,2.7054,2.7033,2.7047,2.6955,2.705,2.705,2.7049,2.7049,2.7049,2.6099,2.6147,2.622,2.6294,2.6348,2.6407,2.646,2.6512,2.6579,2.6668,2.6697,2.6781,2.6856,2.6974,2.7022,2.7091,2.709,2.7109,2.7114,2.7119,2.7119,2.7021,2.7107,2.7107,2.7107,2.7107,2.7107,0,2.6163,2.6212,2.6279,2.6368,2.6427,2.6443,2.6516,2.6565,2.6638,2.6705,2.6772,2.6866,2.6946,2.7015,2.7099,2.7141,2.7155,2.7161,2.716,2.7171,2.7114,2.7095,2.7149,2.7149,2.7149,2.7149,2.7149,2.7149,2.6203,2.6285,2.6319,2.6429,2.6478,2.656,2.6601,2.6657,2.6711,2.6815,2.6881,2.6925,2.6994,2.7083,2.7158,2.7177,2.7207,2.7212,2.7233,2.7179,2.7174,2.717,2.7152,2.7217,2.7217,2.7285,2.7285,2.7286]},{"header":{"parameterUnit":"m.s-1","parameterCategory":1,"la1":30.2991,"la2":30.254,"lo1":-89.0895,"lo2":-89.0444,"dy":0.0017,"dx":0.0017,"nx":28,"ny":28,"refTime":"2024-04-11T21:00:00:Z","depth":0,"parameterNumber":3,"parameterNumberName":"V-component_of_WINDS"},"data":[0,0,0,0,0,0,0,0,0,0,0,0,0,0,0,0,0,0,0,0,0,0,0,0,0,0,0,0,0,0,0,0,0,0,0,0,0,0,0,0,0,0,0,0,0,0,0,0,0,0,0,0,0,0,0,0,0,0,-1.5644,-1.5643,0,-1.5621,-1.5621,-1.5621,-1.5712,-1.5715,-1.5718,-1.572,-1.5693,-1.569,-1.5687,0,0,0,0,0,0,0,0,0,0,0,0,0,-1.5764,-1.5761,-1.5644,-1.5643,-1.5643,-1.5621,-1.5621,-1.562,-1.5712,-1.5715,-1.5718,-1.5722,-1.5694,-1.569,-1.5686,0,0,0,0,0,0,0,0,0,0,0,0,0,-1.5723,-1.576,-1.5644,-1.5686,-1.569,-1.5621,-1.5621,-1.562,-1.5711,-1.5715,-1.5719,-1.5723,-1.5695,-1.5691,-1.5686,-1.5574,0,0,-1.5671,-1.5669,0,0,0,0,0,0,0,0,-1.5725,-1.5719,-1.568,-1.5683,-1.5687,-1.5674,-1.5653,-1.5605,-1.571,-1.5703,-1.572,-1.5725,-1.5683,-1.5679,-1.5666,-1.5573,-1.5571,-1.567,-1.5667,-1.5665,-1.5664,0,0,0,0,0,0,0,-1.5728,-1.572,-1.5635,-1.5679,-1.5684,-1.5706,-1.5704,-1.5644,-1.567,-1.5704,-1.571,-1.5707,-1.5686,-1.5671,-1.5666,-1.5571,-1.567,-1.5666,-1.5663,-1.5661,-1.5387,-1.5383,0,0,0,0,0,0,-1.5726,-1.5722,-1.5635,-1.5634,-1.5717,-1.57,-1.5699,-1.5674,-1.5671,-1.5675,-1.5703,-1.5711,-1.5677,-1.5672,-1.5665,-1.5535,-1.5665,-1.5661,-1.5658,-1.5391,-1.5386,-1.5381,0,0,0,0,0,0,-1.5728,-1.5717,-1.5636,-1.568,-1.5671,-1.5694,-1.5665,-1.5671,-1.5656,-1.5671,-1.5676,-1.5683,-1.568,-1.5672,-1.5597,-1.5536,-1.5659,-1.5654,-1.5396,-1.539,-1.5384,-1.5273,0,0,0,0,0,0,-1.5731,-1.5717,-1.5675,-1.5678,-1.5668,-1.5568,-1.5661,-1.5668,-1.5648,-1.5658,-1.5653,-1.5656,-1.5683,-1.5604,-1.5592,-1.5531,-1.565,-1.5402,-1.5393,-1.5386,-1.5282,-1.5264,-1.5248,0,0,0,0,0,-1.5735,-1.5644,-1.5673,-1.5662,-1.5617,-1.5564,-1.5559,-1.5592,-1.5643,-1.5601,-1.561,-1.5656,-1.5545,-1.5595,-1.5583,-1.5519,-1.5406,-1.5396,-1.5386,-1.529,-1.5267,-1.5248,0,0,0,0,0,0,-1.563,-1.5645,-1.5677,-1.5584,-1.5573,-1.558,-1.5527,-1.5566,-1.5539,-1.5549,-1.5591,-1.5589,-1.5506,-1.5506,-1.5561,-1.5412,-1.5484,-1.5471,-1.5415,-1.5394,-1.5377,-1.5378,-1.5646,0,0,0,0,0,-1.5597,-1.5555,-1.5569,-1.5486,-1.5478,-1.5504,-1.5482,-1.5509,-1.5498,-1.5493,-1.5498,-1.5484,-1.5447,-1.542,-1.5386,-1.5284,-1.5284,-1.5234,-1.5217,-1.5203,-1.5191,-1.5138,-1.5116,-1.5349,-1.5349,-1.5349,0,0,-1.5527,-1.5529,-1.5499,-1.5465,-1.5459,-1.5413,-1.5499,-1.5446,-1.5413,-1.5485,-1.5414,-1.5417,-1.5405,-1.5316,-1.5277,-1.5313,-1.5127,-1.519,-1.5179,-1.5174,-1.5125,-1.5103,-1.5083,-1.5343,-1.5344,-1.5345,0,0,-1.5375,-1.5373,-1.5304,-1.5297,-1.5289,-1.5307,-1.529,-1.5292,-1.5297,-1.5228,-1.5282,-1.5242,-1.5176,-1.5166,-1.5151,-1.5,-1.5041,-1.4987,-1.4896,-1.4844,-1.4826,-1.4809,-1.4755,-1.4735,-1.4976,-1.4975,-1.4975,0,-1.5288,-1.5222,-1.5263,-1.5208,-1.5191,-1.5257,-1.5188,-1.5179,-1.5158,-1.5145,-1.5187,-1.5107,-1.5103,-1.5013,-1.4976,-1.4963,-1.4945,-1.4987,-1.4825,-1.4809,-1.4795,-1.4744,-1.4723,-1.4969,-1.497,-1.497,-1.4971,0,-1.5116,-1.507,-1.5015,-1.4997,-1.4974,-1.4912,-1.4943,-1.4915,-1.4945,-1.4958,-1.4887,-1.4886,-1.4854,-1.4835,-1.4862,-1.4749,-1.4772,-1.4818,-1.4891,-1.4766,-1.4718,-1.4699,-1.496,-1.4962,-1.4964,-1.4966,0,0,-1.4895,-1.4902,-1.4881,-1.4874,-1.4871,-1.4836,-1.4777,-1.4748,-1.4723,-1.4708,-1.4659,-1.4603,-1.4648,-1.4632,-1.4659,-1.4614,-1.4494,-1.4666,-1.4667,-1.4634,-1.4369,-1.4333,-1.431,-1.4523,-1.4519,-1.4516,-1.437,0,-1.4746,-1.4647,-1.4684,-1.4582,-1.454,-1.4604,-1.4553,-1.4545,-1.4557,-1.4523,-1.4536,-1.4496,-1.4557,-1.4549,-1.4506,-1.4517,-1.4441,-1.4529,-1.4477,-1.4475,-1.4477,-1.4285,-1.4246,-1.4109,-1.4352,-1.4349,-1.4347,0,-1.4558,-1.4538,-1.4433,-1.4439,-1.4423,-1.4376,-1.4353,-1.432,-1.4313,-1.4325,-1.4309,-1.4348,-1.429,-1.4365,-1.4287,-1.4345,-1.4327,-1.4329,-1.4325,-1.432,-1.4402,-1.4274,-1.4066,-1.4044,-1.4318,-1.432,-1.4322,0,-1.4407,-1.4354,-1.4284,-1.4276,-1.4282,-1.4248,-1.4248,-1.4246,-1.4227,-1.4206,-1.4194,-1.4167,-1.4151,-1.4129,-1.4159,-1.421,-1.4076,-1.4153,-1.4084,-1.4083,-1.4051,-1.4052,-1.3835,-1.4041,-1.4041,-1.4041,-1.4042,0,-1.4237,-1.4169,-1.4217,-1.4173,-1.4101,-1.4144,-1.407,-1.4078,-1.4076,-1.4035,-1.4089,-1.4049,-1.4092,-1.4056,-1.4079,-1.4011,-1.4004,-1.4012,-1.4018,-1.4006,-1.4005,-1.3993,-1.4003,-1.4036,-1.4037,-1.4038,-1.4039,0,-1.4054,-1.4083,-1.4012,-1.4024,-1.4026,-1.3972,-1.3982,-1.3943,-1.396,-1.3908,-1.3899,-1.3925,-1.3886,-1.3915,-1.3876,-1.3892,-1.3802,-1.3823,-1.3804,-1.381,-1.3739,-1.3745,-1.3506,-1.3477,-1.3702,-1.3699,-1.3698,0,-1.3942,-1.3893,-1.3901,-1.3879,-1.3877,-1.384,-1.3821,-1.3862,-1.384,-1.3831,-1.3792,-1.3759,-1.3734,-1.367,-1.3685,-1.3656,-1.3675,-1.3594,-1.3671,-1.3661,-1.3674,-1.3676,-1.3671,-1.3577,-1.3575,-1.3572,-1.3571,0,-1.3741,-1.3759,-1.3731,-1.3708,-1.3685,-1.3669,-1.3656,-1.3635,-1.3677,-1.365,-1.3612,-1.3593,-1.3556,-1.3521,-1.3499,-1.3499,-1.3541,-1.3547,-1.3529,-1.3515,-1.3507,-1.351,-1.3761,-1.3551,-1.3553,-1.3555,-1.3556,-1.3557,-1.359,-1.355,-1.355,-1.3518,-1.3514,-1.3502,-1.3466,-1.348,-1.345,-1.3424,-1.345,-1.3405,-1.3401,-1.3375,-1.337,-1.3335,-1.3369,-1.3343,-1.3336,-1.3329,-1.3319,-1.3514,-1.3331,-1.3332,-1.3332,-1.3333,-1.3333,0,-1.3392,-1.3396,-1.3366,-1.3349,-1.3323,-1.3369,-1.3358,-1.3333,-1.3293,-1.3287,-1.3263,-1.3221,-1.3189,-1.3203,-1.3175,-1.3144,-1.3163,-1.3135,-1.3137,-1.3137,-1.3291,-1.3309,-1.3121,-1.3121,-1.3121,-1.3121,-1.3121,-1.3121,-1.3285,-1.322,-1.3238,-1.3171,-1.3176,-1.3133,-1.3124,-1.3113,-1.3109,-1.3059,-1.3034,-1.3045,-1.3047,-1.302,-1.2993,-1.2998,-1.2985,-1.295,-1.2961,-1.3105,-1.3126,-1.3145,-1.3162,-1.2947,-1.2946,-1.281,-1.2809,-1.2808]}]]